GFSFLT2_con_sbcape_027.txt.gz
CAPE
0 0 0 0 0 0 0 0 0 0 0 2 8 11 16 20 21 20 22 26 34 37 36 43 44 46 52
0 0 0 0 0 0 0 0 0 0 0 3 6 6 8 11 15 19 21 24 18 21 28 37 39 44 62
0 0 0 0 0 0 0 0 0 0 0 0 0 1 4 7 13 14 11 13 16 19 24 27 35 44 51
0 0 0 0 0 0 1 1 0 0 0 0 0 0 0 0 1 0 2 3 7 12 20 25 24 26 42
0 0 0 1 5 6 3 2 2 0 0 0 0 0 0 0 0 0 0 0 4 16 24 25 30 32 46
0 0 4 7 5 2 5 11 7 0 0 1 0 0 0 0 0 0 0 2 8 12 18 23 28 27 24
7 5 3 5 10 1 13 14 8 4 3 2 0 0 0 0 0 0 1 3 2 5 8 15 25 25 33
1 6 8 3 8 12 18 10 2 0 0 4 0 0 0 0 0 0 0 0 2 6 8 14 20 27 32
0 2 4 4 4 2 4 6 2 0 0 1 0 0 0 0 0 0 0 2 1 2 4 7 14 25 18
0 0 0 0 0 0 1 5 5 3 0 0 0 1 2 0 0 0 0 0 0 1 4 6 9 14 17
0 0 0 0 0 0 0 5 5 6 0 3 6 6 6 4 0 0 0 0 0 0 0 3 5 11 17
0 0 0 0 0 0 0 1 2 7 2 8 7 4 8 8 5 0 0 0 7 9 11 4 3 5 13
0 0 0 0 1 1 1 1 2 3 6 3 10 8 11 8 10 6 8 0 8 11 10 9 12 9 17
0 0 0 1 1 1 2 1 3 0 0 0 1 5 8 11 11 9 8 10 2 5 13 9 14 17 9
0 0 0 0 0 0 1 2 3 3 1 0 1 5 10 8 6 8 7 7 6 11 17 14 12 17 16
1 1 1 1 1 1 2 2 3 1 4 3 5 6 2 0 1 4 7 11 12 14 15 9 12 19 18
1 1 1 1 6 1 0 1 3 5 9 9 7 6 7 4 0 0 7 8 9 8 12 13 12 10 19

GFSFLT2_con_sbcape_030.txt.gz
CAPE
0 0 0 0 0 0 0 0 0 0 0 1 1 5 11 15 16 19 21 23 26 30 29 38 38 44 53
0 0 0 0 0 0 0 0 0 0 0 1 3 5 8 9 13 15 15 18 23 29 30 36 39 45 44
3 0 1 0 0 0 0 0 0 0 0 0 0 2 3 4 10 12 8 11 15 19 27 31 35 34 40
0 3 4 2 1 0 0 0 0 0 0 1 1 0 1 3 2 1 1 2 6 12 15 17 19 23 27
9 7 4 0 0 1 1 1 0 3 0 0 0 0 0 0 0 0 0 0 1 6 13 21 21 20 22
10 3 1 2 2 3 6 9 5 1 0 0 0 0 0 0 0 0 0 2 5 8 13 18 18 22 29
7 3 2 4 10 16 16 12 12 4 6 2 0 0 0 0 0 0 0 1 4 6 8 16 25 25 22
6 6 5 5 12 18 16 11 5 2 3 15 0 0 0 0 0 0 0 0 1 4 9 14 18 22 22
0 0 1 2 5 9 4 16 10 1 0 1 0 0 0 0 0 0 0 1 2 6 9 11 14 19 15
0 0 0 0 0 0 3 11 6 5 0 0 0 2 5 0 0 0 0 0 0 2 3 4 7 13 17
0 0 0 0 0 0 0 9 4 6 0 9 6 7 11 12 0 0 0 0 0 0 1 4 7 12 14
0 0 0 1 4 4 3 5 8 9 6 16 11 8 14 15 7 0 0 0 5 8 17 9 10 15 16
0 0 2 2 5 6 14 9 6 9 9 9 6 2 11 7 10 9 11 0 5 12 13 19 19 22 15
0 0 0 1 1 2 6 4 6 4 6 3 5 11 4 11 13 12 11 13 6 6 15 18 20 18 18
0 0 0 0 1 3 5 5 6 10 11 9 15 14 13 9 9 7 8 13 16 15 16 11 5 7 12
4 4 4 5 6 5 5 4 3 7 10 11 8 5 16 12 6 8 16 14 13 16 16 15 11 9 16
5 4 4 4 6 6 5 4 5 14 13 15 14 16 18 15 13 11 12 6 10 11 16 18 15 10 14

GFSFLT2_con_sbcape_033.txt.gz
CAPE
0 0 0 0 0 0 0 0 0 0 0 0 2 6 9 4 5 9 14 16 21 25 33 36 42 39 46
0 1 0 0 0 0 0 0 0 0 0 3 4 8 4 3 7 11 12 13 16 23 30 36 29 33 32
1 0 0 0 0 0 0 0 0 0 0 0 0 0 1 5 9 10 10 12 14 15 19 24 26 30 36
3 0 0 0 0 0 0 0 0 0 0 0 0 0 1 4 3 2 3 6 9 12 16 15 15 18 23
1 0 0 0 0 0 0 0 0 0 0 0 0 0 0 0 0 0 0 1 3 7 11 16 20 21 22
6 1 0 0 0 0 0 0 0 0 0 0 0 0 0 0 0 0 1 3 5 9 11 17 17 11 25
1 0 0 0 0 0 0 1 1 0 0 0 0 0 0 0 0 0 1 2 5 7 9 15 20 14 26
0 0 0 0 0 1 2 0 0 0 0 0 0 0 0 0 0 0 0 0 0 1 4 10 15 14 15
0 0 0 1 2 0 0 0 0 0 0 0 0 0 0 0 0 0 0 0 0 0 2 4 7 15 5
0 0 0 0 0 0 0 0 1 1 0 0 0 0 0 0 0 0 0 0 0 1 0 2 7 1 0
0 0 0 0 0 0 0 1 2 0 0 1 0 0 3 1 0 0 0 0 0 0 1 2 4 7 1
0 0 0 0 0 2 0 0 0 2 0 3 2 0 1 0 1 0 0 0 0 0 0 2 5 9 16
0 0 0 0 0 0 2 2 0 0 0 0 1 0 1 0 0 0 3 0 0 0 0 0 0 1 4
0 0 0 0 0 0 4 0 2 1 0 0 0 0 0 0 0 0 0 0 0 0 0 0 0 0 1
0 0 0 0 1 1 1 1 0 0 2 1 1 5 3 0 0 0 0 0 0 0 0 0 0 0 0
0 1 1 0 0 1 1 2 4 1 1 0 1 0 0 0 3 0 0 0 0 0 2 3 2 0 0
1 0 3 1 0 3 1 2 2 1 0 0 2 2 1 1 0 11 0 0 0 1 0 2 3 0 0

GFSFLT2_con_sbcape_039.txt.gz
CAPE
1 1 0 1 1 2 1 0 1 7 12 14 5 1 4 7 8 11 10 9 15 18 21 25 31 26 22
0 0 0 0 0 0 0 2 0 0 0 0 0 5 6 1 2 4 8 13 16 21 25 24 23 22 17
0 1 1 1 2 3 1 0 0 0 0 2 1 0 0 1 3 5 9 10 10 12 14 15 14 22 20
0 0 2 4 1 0 0 0 0 0 0 0 0 0 0 0 1 1 0 0 2 5 7 8 10 15 22
0 1 0 0 0 0 0 0 0 0 0 0 0 0 0 0 0 0 0 1 3 7 9 11 15 17 12
0 0 0 0 0 0 0 0 0 0 0 0 0 0 0 0 0 0 0 1 3 7 9 12 18 8 8
0 0 0 0 0 0 0 0 0 0 0 0 0 0 0 0 0 0 0 0 2 2 5 9 13 11 10
0 0 0 0 0 0 0 0 0 0 0 0 0 0 0 0 0 0 0 0 0 0 0 3 7 12 8
0 0 0 2 1 0 0 0 0 0 0 0 0 0 0 0 0 0 0 0 0 0 2 3 5 8 2
0 0 0 0 0 0 0 0 0 0 0 0 0 0 0 0 0 0 0 0 0 0 1 3 5 0 0
0 0 0 0 0 0 0 0 0 0 0 0 0 0 0 0 0 0 0 0 0 0 0 0 1 5 2
0 0 0 0 0 0 0 0 0 0 0 0 0 0 0 0 0 0 0 0 0 0 0 0 0 1 3
0 0 0 0 0 0 0 0 0 0 1 1 0 0 0 0 0 0 0 0 0 0 0 0 0 0 0
0 0 0 0 0 0 0 0 0 0 0 1 0 0 0 0 0 0 0 0 0 0 0 0 0 0 0
0 0 0 0 0 0 0 0 0 0 0 0 0 0 0 0 0 0 0 0 0 0 0 0 0 0 0
0 0 0 0 0 0 0 0 0 0 0 0 0 1 1 0 5 1 0 0 0 0 0 0 0 0 0
0 0 0 0 1 0 0 0 0 0 0 0 0 0 0 0 0 0 0 0 0 0 0 0 0 0 0